When you browse on this site, cookies collect data to enhance your experience and personalize the content and advertising you see.
Visit our Privacy Policy to learn more. By continuing to use the site, you agree to this use of cookies and data.
  • In Italy
  • List of Countries
  • For 7 days
  • Water Temperature
  • Satellite Maps
  • Weather Map
  • Weather Widgets
  • user-avatar
    Login

    Hourly Weather Wavre

    Today, 17 June, Monday

    Time Temperature Precipitation Wind Pressure Humidity
    00:00 +15°C° 0 mm 1 mps 760 mmHg 88%
    01:00 +14°C° 0 mm 2 mps 760 mmHg 89%
    02:00 +14°C° 0 mm 2 mps 759 mmHg 90%
    03:00 +14°C° 0 mm 2 mps 759 mmHg 90%
    04:00 +15°C° 0 mm 2 mps 759 mmHg 87%
    05:00 +16°C° 0 mm 2 mps 759 mmHg 85%
    06:00 +17°C° 0 mm 2 mps 759 mmHg 82%
    07:00 +19°C° 0 mm 2 mps 759 mmHg 76%
    08:00 +20°C° 0 mm 2 mps 759 mmHg 70%
    09:00 +23°C° 0 mm 2 mps 759 mmHg 64%
    10:00 +24°C° 0 mm 2 mps 759 mmHg 61%
    11:00 +24°C° 0 mm 2 mps 759 mmHg 57%
    12:00 +25°C° 0 mm 2 mps 758 mmHg 54%
    13:00 +26°C° 0 mm 1 mps 758 mmHg 53%
    14:00 +26°C° 0 mm 1 mps 758 mmHg 53%
    15:00 +26°C° 0 mm 1 mps 757 mmHg 52%
    16:00 +26°C° 0 mm 1 mps 757 mmHg 57%
    17:00 +26°C° 0 mm 1 mps 757 mmHg 61%
    18:00 +25°C° 0 mm 1 mps 757 mmHg 66%
    19:00 +23°C° 0 mm 1 mps 757 mmHg 70%
    20:00 +21°C° 0 mm 1 mps 757 mmHg 75%
    21:00 +19°C° 0 mm 1 mps 757 mmHg 80%
    22:00 +19°C° 0 mm 1 mps 757 mmHg 82%
    23:00 +18°C° 0 mm 1 mps 757 mmHg 85%

    Tomorrow, 18 June, Tuesday

    Time Temperature Precipitation Wind Pressure Humidity
    00:00 +18°C° 0 mm 1 mps 757 mmHg 87%
    01:00 +16°C° 0 mm 1 mps 756 mmHg 88%
    02:00 +16°C° 0 mm 1 mps 756 mmHg 89%
    03:00 +15°C° 0 mm 1 mps 756 mmHg 90%
    04:00 +16°C° 0 mm 1 mps 756 mmHg 88%
    05:00 +18°C° 0 mm 1 mps 756 mmHg 85%
    06:00 +19°C° 0 mm 1 mps 756 mmHg 83%
    07:00 +21°C° 0 mm 1 mps 756 mmHg 79%
    08:00 +22°C° 0 mm 1 mps 755 mmHg 74%
    09:00 +24°C° 0 mm 2 mps 755 mmHg 70%
    10:00 +25°C° 0.1 mm 2 mps 755 mmHg 66%
    11:00 +26°C° 0.1 mm 1 mps 754 mmHg 62%
    12:00 +27°C° 0.1 mm 1 mps 754 mmHg 58%
    13:00 +27°C° 0.1 mm 1 mps 754 mmHg 57%
    14:00 +28°C° 0.1 mm 2 mps 753 mmHg 56%
    15:00 +28°C° 0.1 mm 2 mps 753 mmHg 55%
    16:00 +27°C° 0.1 mm 2 mps 753 mmHg 60%
    17:00 +27°C° 0.1 mm 2 mps 753 mmHg 65%
    18:00 +26°C° 0.1 mm 2 mps 752 mmHg 69%
    19:00 +25°C° 0.2 mm 2 mps 752 mmHg 74%
    20:00 +23°C° 0.2 mm 1 mps 752 mmHg 78%
    21:00 +22°C° 0.2 mm 1 mps 752 mmHg 82%
    22:00 +21°C° 0 mm 1 mps 752 mmHg 84%
    23:00 +20°C° 0 mm 1 mps 752 mmHg 86%

    Day after tomorrow, 19 June, Wednesday

    Time Temperature Precipitation Wind Pressure Humidity
    00:00 +20°C° 0 mm 1 mps 751 mmHg 87%
    01:00 +19°C° 0 mm 2 mps 751 mmHg 85%
    02:00 +19°C° 0 mm 3 mps 751 mmHg 83%
    03:00 +19°C° 0 mm 4 mps 750 mmHg 81%
    04:00 +19°C° 0.2 mm 5 mps 750 mmHg 79%
    05:00 +19°C° 0.2 mm 6 mps 750 mmHg 78%
    06:00 +20°C° 0.2 mm 6 mps 750 mmHg 77%
    07:00 +21°C° 0.1 mm 7 mps 750 mmHg 73%
    08:00 +23°C° 0.1 mm 7 mps 750 mmHg 70%
    09:00 +24°C° 0.1 mm 7 mps 750 mmHg 67%
    10:00 +24°C° 0 mm 7 mps 750 mmHg 66%
    11:00 +24°C° 0 mm 8 mps 750 mmHg 65%
    12:00 +24°C° 0 mm 9 mps 750 mmHg 64%
    13:00 +24°C° 0.3 mm 8 mps 750 mmHg 66%
    14:00 +23°C° 0.3 mm 8 mps 751 mmHg 69%
    15:00 +22°C° 0.3 mm 7 mps 751 mmHg 71%
    16:00 +22°C° 0.1 mm 6 mps 751 mmHg 72%
    17:00 +21°C° 0.1 mm 6 mps 751 mmHg 73%
    18:00 +20°C° 0.1 mm 5 mps 752 mmHg 74%
    19:00 +19°C° 0 mm 4 mps 752 mmHg 78%
    20:00 +17°C° 0 mm 4 mps 752 mmHg 82%
    21:00 +16°C° 0 mm 3 mps 753 mmHg 85%
    22:00 +14°C° 0 mm 3 mps 753 mmHg 86%
    23:00 +14°C° 0 mm 3 mps 753 mmHg 87%

    20 June, Thursday

    Time Temperature Precipitation Wind Pressure Humidity
    00:00 +14°C° 0 mm 2 mps 753 mmHg 87%
    01:00 +14°C° 0 mm 2 mps 753 mmHg 85%
    02:00 +15°C° 0 mm 2 mps 753 mmHg 83%
    03:00 +15°C° 0 mm 1 mps 753 mmHg 81%
    04:00 +15°C° 0 mm 1 mps 753 mmHg 81%
    05:00 +16°C° 0 mm 1 mps 753 mmHg 81%
    06:00 +16°C° 0 mm 1 mps 753 mmHg 81%
    07:00 +16°C° 0.5 mm 1 mps 753 mmHg 84%
    08:00 +16°C° 0.5 mm 1 mps 754 mmHg 87%
    09:00 +15°C° 0.5 mm 2 mps 754 mmHg 90%
    10:00 +16°C° 0.3 mm 2 mps 754 mmHg 88%
    11:00 +16°C° 0.3 mm 2 mps 754 mmHg 86%
    12:00 +18°C° 0.3 mm 1 mps 754 mmHg 84%
    13:00 +17°C° 0 mm 2 mps 754 mmHg 83%
    14:00 +17°C° 0 mm 2 mps 754 mmHg 82%
    15:00 +17°C° 0 mm 2 mps 754 mmHg 82%
    16:00 +17°C° 0 mm 2 mps 754 mmHg 80%
    17:00 +18°C° 0 mm 2 mps 754 mmHg 78%
    18:00 +19°C° 0 mm 1 mps 755 mmHg 76%
    19:00 +17°C° 0 mm 2 mps 755 mmHg 80%
    20:00 +16°C° 0 mm 2 mps 755 mmHg 83%
    21:00 +14°C° 0 mm 2 mps 756 mmHg 87%
    22:00 +13°C° 0 mm 2 mps 756 mmHg 86%
    23:00 +13°C° 0 mm 2 mps 756 mmHg 86%

    21 June, Friday

    Time Temperature Precipitation Wind Pressure Humidity
    00:00 +12°C° 0 mm 2 mps 756 mmHg 85%
    01:00 +10°C° 0 mm 2 mps 756 mmHg 87%
    02:00 +10°C° 0 mm 2 mps 756 mmHg 89%
    03:00 +9°C° 0 mm 2 mps 756 mmHg 90%
    04:00 +10°C° 0 mm 2 mps 757 mmHg 89%
    05:00 +12°C° 0 mm 2 mps 757 mmHg 87%
    06:00 +13°C° 0 mm 2 mps 757 mmHg 86%
    07:00 +15°C° 0 mm 2 mps 757 mmHg 80%
    08:00 +16°C° 0 mm 2 mps 757 mmHg 75%
    09:00 +18°C° 0 mm 2 mps 757 mmHg 70%
    10:00 +18°C° 0 mm 2 mps 757 mmHg 66%
    11:00 +19°C° 0 mm 2 mps 757 mmHg 62%
    12:00 +21°C° 0 mm 1 mps 757 mmHg 59%
    13:00 +20°C° 0.1 mm 2 mps 757 mmHg 60%
    14:00 +20°C° 0.1 mm 2 mps 757 mmHg 62%
    15:00 +20°C° 0.1 mm 3 mps 757 mmHg 63%
    16:00 +19°C° 0.1 mm 3 mps 757 mmHg 66%
    17:00 +19°C° 0.1 mm 3 mps 757 mmHg 70%
    18:00 +18°C° 0.1 mm 3 mps 757 mmHg 73%
    19:00 +16°C° 0 mm 3 mps 758 mmHg 75%
    20:00 +15°C° 0 mm 2 mps 758 mmHg 77%
    21:00 +13°C° 0 mm 2 mps 758 mmHg 79%
    22:00 +13°C° 0 mm 2 mps 758 mmHg 79%
    23:00 +12°C° 0 mm 2 mps 758 mmHg 78%

    22 June, Saturday

    Time Temperature Precipitation Wind Pressure Humidity
    00:00 +12°C° 0 mm 1 mps 758 mmHg 78%
    01:00 +11°C° 0 mm 1 mps 758 mmHg 81%
    02:00 +11°C° 0 mm 1 mps 758 mmHg 83%
    03:00 +10°C° 0 mm 1 mps 758 mmHg 86%
    04:00 +11°C° 0 mm 1 mps 758 mmHg 84%
    05:00 +13°C° 0 mm 1 mps 758 mmHg 82%
    06:00 +14°C° 0 mm 2 mps 759 mmHg 80%
    07:00 +15°C° 0 mm 2 mps 758 mmHg 76%
    08:00 +17°C° 0 mm 2 mps 758 mmHg 71%
    09:00 +18°C° 0 mm 2 mps 758 mmHg 67%
    10:00 +19°C° 0.1 mm 2 mps 758 mmHg 64%
    11:00 +20°C° 0.1 mm 2 mps 758 mmHg 60%
    12:00 +21°C° 0.1 mm 3 mps 758 mmHg 57%
    13:00 +21°C° 0.1 mm 3 mps 758 mmHg 58%
    14:00 +21°C° 0.1 mm 3 mps 758 mmHg 59%
    15:00 +21°C° 0.1 mm 3 mps 758 mmHg 60%
    16:00 +20°C° 0.1 mm 2 mps 758 mmHg 63%
    17:00 +20°C° 0.1 mm 2 mps 758 mmHg 66%
    18:00 +20°C° 0.1 mm 2 mps 758 mmHg 70%
    19:00 +18°C° 0 mm 2 mps 758 mmHg 72%
    20:00 +17°C° 0 mm 2 mps 758 mmHg 74%
    21:00 +15°C° 0 mm 2 mps 758 mmHg 76%
    22:00 +15°C° 0 mm 2 mps 758 mmHg 76%
    23:00 +15°C° 0 mm 2 mps 758 mmHg 77%
    Show more